Location: Cheyres
(46.8153°N, 6.7877°E)
Time: 17:05:44
(UTC+00:00)

QB50P2 - Pass Details

Date: 27 June 2022
Orbit: 590 x 605 km, 97.9° (Epoch: 18 August)

Event Time Altitude Azimuth Distance (km) Brightness Sun altitude
Rises 23:33:35 0° 35° (NE) 2,858 ? -19.9°
Reaches altitude 10° 23:37:41 10° 75° (ENE) 1,952 ? -19.9°
Maximum altitude 23:38:38 11° 88° (E) 1,909 ? -19.9°
Drops below altitude 10° 23:39:32 10° 100° (E) 1,946 ? -19.9°
Enters shadow 23:40:07 - 108° (ESE) 2,009 ? -19.9°
